Weather History for Ft Lauderdale, FL

Change the Weather History Date:

Tuesday, October 30, 2012

  Actual Average Record
Temperature  
Mean Temperature 65 °F 78 °F  
Max Temperature 73 °F 84 °F 92 °F (1925)
Min Temperature 56 °F 73 °F 52 °F (1953)
Degree Days  
Heating Degree Days 0 0  
Month to date heating degree days 0 0  
Since 1 July heating degree days 0  
Cooling Degree Days 0 13  
Month to date cooling degree days 443 468  
Year to date cooling degree days 4157 4180  
Growing Degree Days 14 (Base 50)    
Moisture  
Dew Point 47 °F    
Average Humidity 57    
Maximum Humidity 69    
Minimum Humidity 44    
Precipitation  
Precipitation 0.00 in 0.16 in 2.12 in (2011)
Month to date precipitation 8.37 6.66  
Year to date precipitation 59.29 56.32  
Snow  
Snow 0.00 in - - ()
Month to date snowfall 0.0  
Since 1 July snowfall 0.0  
Since 1 September snowfall 0.0  
Snow Depth 0.00 in    
Sea Level Pressure  
Sea Level Pressure 29.91 in    
Wind  
Wind Speed 8 mph (WNW)    
Max Wind Speed 21 mph    
Max Gust Speed 30 mph    
Visibility 10 miles    
Events      
T = Trace of Precipitation, MM = Missing Value Source: NWS Daily Summary

Daily Weather History Graph

Daily Weather History Graph

Search for Another Location

Airport:

Trip Planner

Search our weather history database for the weather conditions in past years. The results will help you decide how hot, cold, wet, or windy it might be!

Date:

Astronomy

Oct. 30, 2012 Rise Set
Actual Time 7:28 AM EDT 6:39 PM EDT
Civil Twilight 7:04 AM EDT 7:03 PM EDT
Nautical Twilight 6:37 AM EDT 7:30 PM EDT
Astronomical Twilight 6:10 AM EDT 7:57 PM EDT
Moon 7:16 PM EDT 8:06 AM EDT
Length of Visible Light 11h 58m
Length of Day
11h 11m
Full, 99% of the Moon is Illuminated
Oct 30
Full
Nov 6
Last Quarter
Nov 13
New
Nov 20
First Quarter
Nov 28
Full

Hourly Weather History & Observations

Time (EDT) Temp. Dew Point Humidity Pressure Visibility Wind Dir Wind Speed Gust Speed Precip Events Conditions
12:53 AM 61.0 °F 46.0 °F 58% 29.87 in 10.0 mi West 8.1 mph - N/A   Clear
1:53 AM 61.0 °F 46.9 °F 60% 29.86 in 10.0 mi West 5.8 mph - N/A   Clear
2:53 AM 59.0 °F 48.9 °F 69% 29.84 in 10.0 mi West 5.8 mph - N/A   Clear
3:53 AM 60.1 °F 48.9 °F 67% 29.84 in 10.0 mi WSW 4.6 mph - N/A   Clear
4:53 AM 61.0 °F 50.0 °F 67% 29.84 in 10.0 mi West 6.9 mph - N/A   Partly Cloudy
5:53 AM 61.0 °F 50.0 °F 67% 29.87 in 10.0 mi NW 9.2 mph - N/A   Overcast
6:53 AM 57.9 °F 46.0 °F 65% 29.89 in 10.0 mi NNW 9.2 mph - N/A   Partly Cloudy
7:53 AM 55.9 °F 45.0 °F 67% 29.92 in 10.0 mi NNW 6.9 mph - N/A   Partly Cloudy
8:53 AM 59.0 °F 42.1 °F 53% 29.94 in 10.0 mi NNW 8.1 mph - N/A   Partly Cloudy
9:53 AM 62.1 °F 42.1 °F 48% 29.95 in 10.0 mi NNW 11.5 mph - N/A   Partly Cloudy
10:53 AM 64.0 °F 43.0 °F 46% 29.96 in 10.0 mi WNW 8.1 mph - N/A   Partly Cloudy
11:53 AM 66.9 °F 45.0 °F 45% 29.95 in 10.0 mi WNW 10.4 mph 18.4 mph N/A   Clear
12:53 PM 69.1 °F 46.9 °F 45% 29.93 in 10.0 mi WNW 15.0 mph 21.9 mph N/A   Clear
1:53 PM 70.0 °F 46.9 °F 44% 29.91 in 10.0 mi WNW 18.4 mph 25.3 mph N/A   Clear
2:53 PM 72.0 °F 46.9 °F 41% 29.89 in 10.0 mi WNW 16.1 mph 24.2 mph N/A   Partly Cloudy
3:53 PM 72.0 °F 46.9 °F 41% 29.88 in 10.0 mi West 16.1 mph 26.5 mph N/A   Partly Cloudy
4:53 PM 72.0 °F 46.0 °F 40% 29.88 in 10.0 mi WNW 17.3 mph 25.3 mph N/A   Clear
5:53 PM 71.1 °F 45.0 °F 39% 29.89 in 10.0 mi WNW 11.5 mph - N/A   Clear
6:53 PM 68.0 °F 45.0 °F 43% 29.91 in 10.0 mi WNW 10.4 mph - N/A   Clear
7:53 PM 66.0 °F 46.0 °F 48% 29.94 in 10.0 mi West 9.2 mph - N/A   Clear
8:53 PM 64.9 °F 46.9 °F 52% 29.96 in 10.0 mi WNW 9.2 mph - N/A   Clear
9:53 PM 64.0 °F 48.0 °F 56% 29.99 in 10.0 mi West 9.2 mph - N/A   Clear
10:53 PM 63.0 °F 48.9 °F 60% 30.00 in 10.0 mi West 8.1 mph - N/A   Clear
11:53 PM 59.0 °F 51.1 °F 75% 30.01 in 10.0 mi SW 4.6 mph - N/A   Clear